Change the Weather History Date:

Thursday, January 10, 2013

  Actual Average Record
Temperature  
Mean Temperature 44 °F 30 °F  
Max Temperature 49 °F 39 °F 66 °F (1990)
Min Temperature 38 °F 21 °F -16 °F (1982)
Degree Days  
Heating Degree Days 21 35  
Month to date heating degree days 323 350  
Since 1 July heating degree days 2121 2315  
Cooling Degree Days 0 0  
Month to date cooling degree days 0 0  
Year to date cooling degree days 0 0  
Moisture  
Dew Point 42 °F    
Average Humidity 75    
Maximum Humidity 100    
Minimum Humidity 49    
Precipitation  
Precipitation 0.31 in 0.03 in 0.55 in (2008)
Month to date precipitation 0.31 0.29  
Year to date precipitation 0.31 0.29  
Sea Level Pressure  
Sea Level Pressure 29.93 in    
Wind  
Wind Speed 10 mph (ESE)    
Max Wind Speed 20 mph    
Max Gust Speed 26 mph    
Visibility 3 miles    
Events Fog , Rain    
T = Trace of Precipitation, MM = Missing Value Source: NWS Daily Summary

Daily Weather History Graph

Daily Weather History Graph

Search for Another Location

Airport or City:

Trip Planner

Search our weather history database for the weather conditions in past years. The results will help you decide how hot, cold, wet, or windy it might be!

Date:

Astronomy

Jan. 10, 2013 Rise Set
Actual Time 7:37 AM CST 5:16 PM CST
Civil Twilight 7:07 AM CST 5:45 PM CST
Nautical Twilight 6:34 AM CST 6:18 PM CST
Astronomical Twilight 6:02 AM CST 6:50 PM CST
Moon 6:17 AM CST (1/10) 4:24 PM CST (1/10)
Length of Visible Light 10h 38m
Length of Day
9h 39m
Waning Crescent, 2% of the Moon is Illuminated
Jan 10
Waning Crescent
Jan 11
New
Jan 18
First Quarter
Jan 26
Full
Feb 3
Last Quarter

Hourly Weather History & Observations

Time (CST) Temp. Windchill Dew Point Humidity Pressure Visibility Wind Dir Wind Speed Gust Speed Precip Events Conditions
12:53 AM 45.0 °F 39.3 °F 28.9 °F 53% 30.31 in 10.0 mi ESE 11.5 mph 23.0 mph N/A   Clear
1:53 AM 45.0 °F 38.5 °F 28.0 °F 52% 30.29 in 10.0 mi ESE 13.8 mph 23.0 mph N/A   Clear
2:53 AM 44.1 °F 37.1 °F 28.9 °F 55% 30.27 in 10.0 mi ESE 15.0 mph 19.6 mph N/A   Overcast
3:53 AM 43.0 °F 37.2 °F 30.0 °F 60% 30.24 in 10.0 mi ESE 10.4 mph - 0.00 in Rain Light Rain
4:25 AM 42.8 °F 35.1 °F 28.4 °F 57% 30.21 in 10.0 mi East 16.1 mph 21.9 mph 0.00 in   Overcast
4:53 AM 41.0 °F 33.1 °F 33.1 °F 73% 30.19 in 5.0 mi East 15.0 mph 20.7 mph 0.01 in Rain Light Rain
5:53 AM 39.9 °F 31.1 °F 35.1 °F 83% 30.17 in 3.0 mi East 17.3 mph 25.3 mph 0.01 in Rain Light Rain
6:53 AM 37.9 °F 29.2 °F 36.0 °F 93% 30.15 in 4.0 mi East 15.0 mph - 0.00 in Rain Light Rain
7:06 AM 37.4 °F 29.3 °F 35.6 °F 93% 30.13 in 5.0 mi East 12.7 mph 21.9 mph 0.00 in   Overcast
7:53 AM 37.9 °F 30.0 °F 37.0 °F 97% 30.13 in 4.0 mi East 12.7 mph - 0.00 in Rain Light Rain
8:53 AM 37.9 °F 29.2 °F 37.0 °F 97% 30.09 in 9.0 mi East 15.0 mph 23.0 mph 0.00 in   Overcast
9:53 AM 39.0 °F 31.8 °F 37.9 °F 96% 30.06 in 8.0 mi ESE 11.5 mph 18.4 mph N/A   Overcast
10:12 AM 39.2 °F 32.0 °F 37.4 °F 93% 30.04 in 1.8 mi ESE 11.5 mph - 0.00 in Rain Light Rain
10:14 AM 39.2 °F 33.0 °F 37.4 °F 93% 30.04 in 1.0 mi ESE 9.2 mph - 0.00 in Rain Light Rain
10:53 AM 39.9 °F 33.4 °F 39.0 °F 97% 30.00 in 1.0 mi ESE 10.4 mph - 0.01 in Rain Light Rain
10:54 AM 39.2 °F 32.5 °F 39.2 °F 100% 29.99 in 2.0 mi ESE 10.4 mph - 0.00 in Rain Light Rain
11:46 AM 39.2 °F 32.5 °F 39.2 °F 100% 29.95 in 1.2 mi ESE 10.4 mph 18.4 mph 0.01 in Rain Rain
11:53 AM 41.0 °F 35.8 °F 39.9 °F 96% 29.96 in 1.0 mi ESE 8.1 mph - 0.02 in Rain Light Rain
12:14 PM 41.0 °F 35.8 °F 39.2 °F 93% 29.93 in 2.0 mi ESE 8.1 mph - 0.01 in Rain Light Rain
12:37 PM 42.8 °F 37.0 °F 42.8 °F 100% 29.91 in 1.0 mi SE 10.4 mph 18.4 mph 0.01 in   Overcast
12:53 PM 42.1 °F 34.5 °F 42.1 °F 100% 29.91 in 1.0 mi SE 15.0 mph - 0.01 in   Overcast
1:11 PM 42.8 °F 36.2 °F 42.8 °F 100% 29.89 in 0.8 mi SSE 12.7 mph - 0.01 in Rain Light Rain
1:26 PM 42.8 °F 37.0 °F 42.8 °F 100% 29.88 in 1.2 mi SE 10.4 mph - 0.01 in   Overcast
1:53 PM 44.1 °F 39.5 °F 44.1 °F 100% 29.88 in 1.5 mi SE 8.1 mph - 0.01 in   Overcast
2:09 PM 44.6 °F 40.7 °F 44.6 °F 100% 29.86 in 1.0 mi SE 6.9 mph - N/A   Overcast
2:45 PM 44.6 °F 39.7 °F 44.6 °F 100% 29.85 in 0.5 mi SE 9.2 mph - 0.00 in Fog , Rain Light Rain
2:53 PM 44.1 °F 39.5 °F 44.1 °F 100% 29.85 in 0.8 mi ESE 8.1 mph - 0.01 in Rain Light Rain
3:00 PM 44.6 °F 40.2 °F 44.6 °F 100% 29.84 in 1.2 mi SE 8.1 mph - 0.00 in Rain Light Rain
3:10 PM 44.6 °F 41.4 °F 44.6 °F 100% 29.84 in 1.8 mi SE 5.8 mph - 0.00 in Rain Light Rain
3:17 PM 44.6 °F 40.2 °F 44.6 °F 100% 29.84 in 2.5 mi SE 8.1 mph - 0.00 in   Overcast
3:23 PM 44.6 °F 40.7 °F 44.6 °F 100% 29.84 in 1.5 mi SE 6.9 mph - 0.00 in Rain Light Rain
3:53 PM 45.0 °F 42.6 °F 45.0 °F 100% 29.85 in 2.0 mi SE 4.6 mph - 0.01 in Rain Light Rain
3:55 PM 44.6 °F 43.1 °F 44.6 °F 100% 29.84 in 0.8 mi ESE 3.5 mph - 0.01 in Rain Rain
4:53 PM 46.0 °F 44.8 °F 46.0 °F 100% 29.83 in 0.8 mi East 3.5 mph - 0.07 in   Overcast
5:53 PM 46.0 °F - 46.0 °F 100% 29.84 in 2.5 mi Calm Calm - 0.02 in Rain Light Rain
6:03 PM 46.4 °F - 46.4 °F 100% 29.83 in 1.2 mi Calm Calm - 0.06 in Rain Rain
6:22 PM 46.4 °F - 46.4 °F 100% 29.83 in 1.8 mi Calm Calm - 0.12 in Rain Light Rain
6:30 PM 46.4 °F - 46.4 °F 100% 29.83 in 2.5 mi Calm Calm - 0.12 in Rain Light Rain
6:43 PM 46.4 °F - 46.4 °F 100% 29.82 in 4.0 mi Calm Calm - 0.12 in   Overcast
6:53 PM 46.9 °F - 46.9 °F 100% 29.82 in 4.0 mi Calm Calm - 0.12 in   Overcast
7:06 PM 46.4 °F 42.4 °F 46.4 °F 100% 29.78 in 1.8 mi NE 8.1 mph - N/A   Overcast
7:24 PM 46.4 °F 42.4 °F 46.4 °F 100% 29.77 in 0.8 mi ENE 8.1 mph - N/A   Overcast
7:33 PM 46.4 °F 41.9 °F 46.4 °F 100% 29.76 in 0.5 mi ENE 9.2 mph - N/A Fog Fog
7:53 PM 46.0 °F 41.0 °F 46.0 °F 100% 29.77 in 0.2 mi East 10.4 mph - N/A Fog Fog
8:53 PM 46.9 °F - 46.9 °F 100% 29.78 in 0.2 mi South 10.4 mph - N/A Fog Fog
9:53 PM 48.9 °F - 48.9 °F 100% 29.76 in 0.5 mi SSW 9.2 mph - 0.01 in Fog Fog
10:14 PM 48.2 °F - 48.2 °F 100% 29.75 in 1.0 mi SSW 8.1 mph - N/A   Mist
10:29 PM 48.2 °F - 48.2 °F 100% 29.74 in 1.8 mi SSW 11.5 mph 18.4 mph N/A   Overcast
11:14 PM 48.2 °F - 48.2 °F 100% 29.73 in 3.0 mi SSW 6.9 mph - N/A   Overcast
11:53 PM 48.9 °F - 48.9 °F 100% 29.73 in 3.0 mi SSW 8.1 mph - N/A   Overcast